Location: ????????
(55.4896°N, 38.2343°E)
Time: 21:08:46
(UTC+00:00)

Daily predictions for brighter satellites

Satellite Brightness Start Highest point End
(mag) Time Altitude Azimuth Time Altitude Azimuth Time Altitude Azimuth
CENTAUR R/B 3.4 13:47:46 10° WNW 13:54:25 47° N 14:02:05 10° ENE
Okean-O 3.5 13:51:43 10° ESE 13:55:30 29° ENE 13:59:19 10° N
Cosmos 1500 Rocket 3.6 13:56:18 10° NNW 14:00:43 86° WSW 14:05:03 10° S
ERBS 4.4 13:59:14 10° S 14:01:19 16° SE 14:03:24 10° E
TSX-5 4.4 13:58:48 10° SSW 14:03:10 81° SE 14:08:58 10° NE
Cosmos 1633 Rocket 3.9 13:59:19 10° N 14:03:11 28° ENE 14:07:02 10° SE
Cosmos 2369 Rocket 3.4 13:58:11 10° WSW 14:03:18 35° NW 14:08:26 10° NNE
Cosmos 2219 4.1 13:59:12 10° NW 14:04:42 55° WSW 14:10:09 10° SSE
Envisat 3.7 14:01:35 10° ESE 14:06:03 32° ENE 14:10:33 10° N
Cosmos 1862 4.1 14:03:53 10° N 14:07:25 29° ENE 14:10:57 10° SE
CORIOLIS 4.4 14:02:30 10° SE 14:07:44 51° ENE 14:13:00 10° N
Sich 1 3.3 14:05:14 10° N 14:09:26 45° ENE 14:13:39 10° SE
ALOS 3.0 14:07:11 10° S 14:11:47 58° W 14:16:25 10° NNW
Cosmos 1464 Rocket 4.2 14:08:14 10° N 14:14:12 47° ENE 14:20:06 10° SE
USA 238 DEB 4.2 14:08:07 10° WNW 14:14:51 48° NNE 14:21:50 10° E
USA 238 4.2 14:08:13 10° WNW 14:14:57 48° NNE 14:21:56 10° E
Cosmos 397 4.4 14:10:56 10° NW 14:15:18 83° NE 14:19:23 10° SE
Okean O Rocket 2.4 14:11:58 10° S 14:16:17 57° WSW 14:20:37 10° NNW
Meteor 1-28 Rocket 3.7 14:12:42 10° N 14:16:22 60° WNW 14:20:02 10° SSW
ATLAS 3B R/B 3.3 14:10:11 10° WNW 14:16:28 42° N 14:22:32 11° ENE
SMAP 3.1 14:12:03 10° SSE 14:16:39 61° ENE 14:21:16 10° N
Cosmos 1980 Rocket 3.8 14:14:48 10° SE 14:17:47 15° E 14:20:23 11° ENE
Cosmos 2297 Rocket 2.8 14:12:25 10° NW 14:18:01 63° WSW 14:23:36 10° SSE
Cosmos 1455 3.4 14:14:30 10° SW 14:18:05 43° WNW 14:21:43 10° N
Cosmos 1666 Rocket 3.9 14:14:15 10° N 14:18:27 42° ENE 14:22:34 10° SE
Cosmos 2344 3.7 14:11:04 10° SW 14:18:34 82° SE 14:27:24 10° NE
Cosmos 2227 Rocket 2.7 14:13:00 10° NW 14:18:39 66° WSW 14:24:14 10° SSE
NOSS 3-2 (A) 4.2 14:12:26 10° WNW 14:18:57 48° NNE 14:26:23 10° E
Cosmos 1943 Rocket 3.7 14:14:31 10° W 14:19:25 29° NNW 14:24:20 10° NNE
COSMO-SKYMED 1 4.2 14:19:31 11° NE 14:21:44 14° E 14:24:09 10° ESE
Cosmos 2123 Rocket 4.2 14:15:38 10° SSW 14:21:50 80° WNW 14:28:03 10° N
Cosmos 1371 Rocket 4.2 14:16:54 10° NNW 14:21:58 46° NE 14:26:57 10° SE
Feng Yun 1-1 Rocket 4.2 14:16:39 10° SSE 14:22:10 76° ENE 14:27:37 10° NNW
NOAA 12 4.2 14:23:46 10° SE 14:28:57 55° ENE 14:34:10 10° N
NOSS 7 (D) 4.0 14:27:23 10° WSW 14:30:12 68° NW 14:32:17 16° NE
Cosmos 2221 2.6 14:25:53 10° S 14:30:14 88° W 14:34:39 10° NNE
Cosmos 1633 2.6 14:29:38 10° N 14:33:16 57° ENE 14:36:51 10° SSE
Cosmos 2263 Rocket 2.7 14:29:28 10° NNW 14:34:42 39° NE 14:39:54 10° ESE
AQUARIUS 4.1 14:31:56 10° SSE 14:36:26 80° ENE 14:40:57 10° NNW
ATLAS 5 CENTAUR R/B 4.2 14:35:48 10° WNW 14:40:52 34° SW 14:46:36 10° S
Genesis I 3.3 14:38:24 10° SW 14:42:25 78° NW 14:45:34 16° NE
Cosmos 1689 Rocket 3.4 14:40:55 10° N 14:43:49 40° WNW 14:46:42 10° SW
Cosmos 1680 Rocket 4.3 14:42:40 10° SSE 14:47:15 32° ESE 14:50:48 15° NE
Cosmos 2369 4.2 14:42:39 10° S 14:47:52 39° ESE 14:52:11 15° NE
Ariane Rocket 4.1 14:46:19 15° E 14:49:14 24° NE 14:53:14 10° N
Cosmos 1869 3.2 14:45:29 10° S 14:49:24 75° E 14:53:21 10° NNE
Cosmos 2082 4.3 14:44:02 10° NW 14:49:35 61° WSW 14:55:07 10° SSE
Cosmos 1470 Rocket 3.9 14:45:26 10° N 14:49:44 42° ENE 14:54:00 10° SE
YAOGAN 1 3.1 14:48:00 10° SE 14:51:56 35° ENE 14:55:53 10° N
H-2A R/B 2.9 14:48:34 10° S 14:52:24 78° WSW 14:56:13 10° NNW
Cosmos 773 Rocket 4.0 14:47:16 10° SSW 14:52:29 84° WNW 14:57:46 10° NNE
Cosmos 1697 Rocket 3.1 14:49:40 10° S 14:54:54 41° ESE 14:58:53 17° NE
FengYun 1-2 T 4.2 14:54:08 10° SE 14:59:33 62° ENE 15:04:58 10° NNW
CZ-4B R/B 3.9 14:59:25 10° NNW 15:02:00 21° WNW 15:04:38 10° WSW
USA 215 3.2 14:58:38 17° E 15:03:50 81° N 15:10:24 10° WNW
NOSS 3-2 (C) 4.2 14:58:10 10° WNW 15:04:48 50° NNE 15:09:52 21° E
Cosmos 2278 4.2 15:00:41 10° S 15:05:57 40° ESE 15:09:19 21° NE
Cosmos 1656 3.6 15:03:01 10° SSW 15:08:32 75° ESE 15:12:58 16° NE
SKYMED 2 4.1 15:08:13 22° NE 15:10:23 35° E 15:14:23 10° SSE
Cosmos 1624 Rocket 4.0 15:07:11 10° NNW 15:12:35 86° ENE 15:17:56 10° SSE
Cosmos 923 Rocket 4.0 15:08:16 10° S 15:13:23 59° ESE 15:17:13 18° NE
Cosmos 2056 Rocket 3.4 15:08:29 10° NNW 15:13:39 85° ENE 15:18:50 10° SSE
PSLV R/B 4.5 15:09:32 10° N 15:13:44 61° WNW 15:17:54 10° SSW
Cosmos 2034 Rocket 4.0 15:07:28 10° N 15:13:52 83° ENE 15:20:17 10° SSE
Cosmos 1356 Rocket 3.5 15:09:53 10° SSW 15:14:06 79° WNW 15:18:25 10° NNE
NOSS 2-3 (E) 4.4 15:10:28 10° SSW 15:14:39 38° SE 15:16:32 28° E
YAOGAN 6 2.4 15:12:26 10° SSE 15:15:53 67° ENE 15:19:23 10° N
Cosmos 1844 Rocket 3.7 15:12:02 10° NNW 15:16:47 27° NNE 15:18:12 24° NE
Elektron 3 4.3 15:14:54 10° W 15:17:44 49° NNW 15:18:40 34° NNE
USA 229 DEB 3.6 15:11:06 10° SW 15:17:46 82° SE 15:22:38 22° NE
USA 229 3.6 15:11:13 10° SW 15:17:52 82° SE 15:22:42 22° NE
Cosmos 2278 Rocket 3.8 15:16:50 10° NNW 15:20:45 18° NNE 15:22:24 17° NE
NOSS 3-1 (C) 3.4 15:15:15 10° SW 15:21:01 80° SE 15:25:22 23° NE
Cosmos 2227 4.2 15:15:20 10° NNW 15:21:10 81° NE 15:26:56 10° SE
Cosmos 44 3.6 15:18:26 10° NW 15:22:38 40° NNE 15:23:38 35° ENE
NOSS 3-1 (A) 3.5 15:17:19 10° SSW 15:22:58 62° SE 15:26:44 26° ENE
H-2A R/B 3.4 15:24:15 21° NE 15:24:15 21° NE 15:27:26 10° N
NOSS 2-3 (D) 4.3 15:20:02 10° SSW 15:24:18 42° SE 15:25:49 33° E
Meteor 2-20 Rocket 4.5 15:18:26 10° SSW 15:24:35 84° WNW 15:30:48 10° NNE
Cosmos 1867 4.2 15:19:46 10° WSW 15:25:06 52° NNW 15:28:34 22° NE
Cosmos 1538 Rocket 4.4 15:20:41 10° SW 15:25:57 64° WNW 15:30:58 12° NNE
BREEZE-M DEB (TANK) 4.5 15:23:42 10° SSW 15:25:57 13° S 15:27:00 12° SSE
BREEZE-M DEB (TANK) 3.5 15:19:28 10° WSW 15:26:33 40° S 15:28:01 26° SE
CZ-4 R/B 1.3 15:24:02 10° SSE 15:28:09 82° ENE 15:32:12 10° NNW
SeaSat 1 3.0 15:25:00 10° SSE 15:29:53 61° WSW 15:34:48 10° NW
Cosmos 1634 Rocket 4.0 15:25:09 10° N 15:31:16 56° ENE 15:37:19 10° SSE
Okean-O 3.6 15:27:30 10° S 15:31:49 50° W 15:36:09 10° NNW
Lacrosse 4 Rocket 1.2 15:28:37 10° SW 15:32:41 80° SE 15:33:55 43° NE
NOAA 11 4.2 15:28:20 10° SE 15:33:39 59° ENE 15:39:01 10° N
CSL-04 Debris 4.1 15:28:11 10° SSE 15:33:41 79° ENE 15:39:12 10° NNW
Cosmos 1939 Rocket 3.1 15:33:28 45° E 15:33:54 47° ENE 15:37:53 10° N
ERBS 2.3 15:33:52 10° SW 15:37:08 61° SSE 15:37:08 61° SSE
Cosmos 1633 Rocket 4.2 15:36:57 10° NNW 15:41:10 45° W 15:45:23 10° SSW
Cosmos 371 Rocket 4.4 15:37:07 10° NNW 15:40:42 27° NNE 15:40:42 27° NNE
Cosmos 1816 Rocket 4.5 15:36:18 10° S 15:42:35 67° E 15:48:55 10° NNE
Envisat 3.8 15:39:57 10° S 15:44:54 53° W 15:49:55 10° NNW
CSL-04 Rocket 3.6 15:40:42 10° SSE 15:46:03 87° WSW 15:51:23 10° NNW
Meteor 1-20 Rocket 4.2 15:40:17 10° NNW 15:46:10 71° ENE 15:51:58 10° SSE
Cosmos 1933 4.4 15:42:18 10° S 15:44:37 30° SSE 15:44:37 30° SSE
Meteor 1-25 Rocket 4.1 15:40:38 10° NNW 15:46:19 72° ENE 15:52:03 10° SSE
CENTAUR R/B 3.2 15:39:13 10° WNW 15:46:28 57° NNE 15:50:02 34° E
Tsikada Rocket 4.0 15:40:45 10° S 15:47:05 68° E 15:53:28 10° NNE
Cosmos 1844 4.5 15:42:03 10° NNW 15:47:16 33° NE 15:47:45 32° NE
Cosmos 2369 Rocket 4.2 15:45:15 10° NW 15:49:01 18° NNW 15:51:46 13° NNE
Timation 1 Rocket 4.3 15:43:18 10° NW 15:49:20 89° NE 15:53:37 20° SE
Cosmos 2279 Rocket 4.1 15:43:40 10° N 15:49:43 50° ENE 15:52:19 32° SE
Cosmos 1151 Rocket 2.9 15:46:50 10° S 15:51:13 90° ESE 15:54:02 22° NNE
Cosmos 2228 Rocket 4.4 15:49:27 10° SSE 15:51:33 26° SSE 15:51:33 26° SSE
Cosmos 1420 Rocket 3.9 15:49:48 10° NNW 15:55:02 89° NE 15:58:08 25° SSE
Cosmos 1933 Rocket 3.8 15:53:06 10° NNW 15:57:26 69° W 16:01:46 10° S
COSMO-SKYMED 1 2.4 15:56:45 35° NNE 15:58:34 89° ESE 16:02:55 10° SSW
SL-16 R/B 4.2 15:55:24 10° SSE 15:56:11 13° SSE 15:56:11 13° SSE
Cosmos 1980 Rocket 2.1 15:55:08 10° SSW 16:00:45 66° ESE 16:02:11 48° ENE
Cosmos 1328 Rocket 3.7 15:56:21 10° SSW 16:00:46 71° WNW 16:03:52 19° N
NOSS 2-3 (C) 3.8 15:57:24 10° SW 16:01:58 72° SE 16:02:43 61° E
Cosmos 1452 Rocket 3.4 15:56:52 10° NNW 16:02:13 84° ENE 16:04:13 40° SSE
Cosmos 1515 Rocket 3.4 16:00:38 10° S 16:05:01 86° E 16:05:25 73° NNE
Cosmos 1943 Rocket 4.1 16:01:25 10° NW 16:05:06 17° N 16:07:04 15° NNE
Geosat 3.8 16:04:18 52° NE 16:05:32 80° ESE 16:10:36 10° SSW
Cosmos 158 Rocket 3.8 16:01:17 10° SSW 16:06:31 70° ESE 16:07:06 63° ENE
USA 238 DEB 3.7 15:59:29 10° NW 16:06:37 83° NE 16:09:32 41° ESE
USA 238 3.7 15:59:35 10° NW 16:06:43 83° NE 16:09:37 41° ESE
Cosmos 44 Rocket 4.2 16:03:00 10° NW 16:07:01 34° NNE 16:07:01 34° NNE
CZ-2D R/B 3.5 16:08:03 65° NW 16:08:03 65° NW 16:11:26 10° NNW
ATLAS 3B R/B 2.9 16:01:51 10° NW 16:08:21 53° NNE 16:09:47 45° ENE
GEOS 3 Rocket 3.5 16:08:18 61° E 16:09:01 69° SE 16:14:15 10° SW
NOSS 3-2 (A) 3.8 16:03:34 10° NW 16:10:42 81° NE 16:13:48 42° ESE
USA 116 4.1 16:11:47 64° NNE 16:12:30 82° ESE 16:17:38 10° SSW
IRS-1A Rocket 4.2 16:14:05 38° SSE 16:16:27 81° ENE 16:22:18 10° NNW
Cosmos 2180 Rocket 4.4 16:11:49 10° N 16:17:56 61° ENE 16:18:16 60° E
Meteor 1-14 Rocket 4.2 16:12:21 10° NNW 16:18:23 87° ENE 16:22:04 25° SSE
Cosmos 2263 Rocket 2.6 16:13:26 10° NW 16:18:56 60° WSW 16:22:22 23° S
Cosmos 2112 Rocket 4.2 16:18:02 10° SW 16:23:14 68° WNW 16:24:58 42° N
Ariane Rocket 3.0 16:26:31 53° S 16:27:43 79° WSW 16:32:50 10° NNW
YAOGAN 1 4.0 16:23:59 10° SSW 16:28:01 37° W 16:32:05 10° NNW
Cosmos 1680 Rocket 4.1 16:24:00 10° SW 16:29:09 56° NW 16:31:08 35° N
Cosmos 2369 4.3 16:26:22 10° SW 16:31:57 55° NW 16:34:08 35° N
Cosmos 2344 4.2 16:26:07 10° W 16:33:47 55° N 16:37:34 35° NE
Cosmos 1697 Rocket 3.3 16:33:18 10° SW 16:38:49 52° NW 16:40:38 38° N
ARGOS 4.3 16:48:41 33° N 16:48:41 33° N 16:51:41 10° NNW
USA 215 3.3 16:46:00 59° SSE 16:47:03 69° SSW 16:53:35 10° WNW
Cosmos 2278 4.3 16:44:26 10° SW 16:50:01 53° NW 16:51:14 45° N
MOS 1 4.3 16:50:22 77° WSW 16:50:26 77° WSW 16:56:09 10° NNW
NOSS 3-2 (C) 3.8 16:49:16 10° NW 16:56:29 89° SW 16:57:19 74° SE
Cosmos 1844 Rocket 3.3 16:55:53 10° NNW 16:59:52 48° NNW 16:59:52 48° NNW
H-2A R/B 3.4 17:04:52 32° NNW 17:04:52 32° NNW 17:07:39 10° NNW
CZ-4 R/B 4.4 17:01:22 10° WSW 17:03:42 15° W 17:06:02 10° NW
Cosmos 2278 Rocket 3.7 17:01:15 10° NNW 17:04:14 27° N 17:04:14 27° N
USA 229 DEB 4.2 17:02:40 10° W 17:09:16 51° NNW 17:10:05 49° N
USA 229 4.2 17:02:47 10° W 17:09:21 51° NNW 17:10:09 49° N
Lacrosse 4 Rocket 3.8 17:08:21 10° W 17:10:15 20° WNW 17:10:15 20° WNW
NOSS 3-1 (C) 4.1 17:06:27 10° W 17:12:25 50° NNW 17:12:46 49° N
NOSS 3-1 (A) 4.0 17:08:08 10° W 17:14:04 56° NNW 17:14:11 56° NNW
Cosmos 2369 Rocket 4.4 17:31:25 10° NNW 17:33:33 16° N 17:33:33 16° N
CENTAUR R/B 3.1 17:30:03 10° NW 17:37:13 74° W 17:37:13 74° W
Cosmos 1980 Rocket 3.7 17:39:54 10° WSW 17:43:59 34° WNW 17:43:59 34° WNW
Cosmos 1943 Rocket 4.5 17:46:46 10° NNW 17:48:35 16° NNW 17:48:35 16° NNW
ATLAS 3B R/B 3.6 17:52:45 10° NW 17:57:03 42° WNW 17:57:03 42° WNW
ATLAS 2AS CENTAUR R/B 4.5 23:35:58 27° E 23:35:58 27° E 23:39:06 10° E
CZ-4C R/B 4.4 23:54:44 24° NE 23:54:44 24° NE 23:57:17 10° NE
